Location: Arroyo Retuerta
(40.5469°N, 4.3534°W)
Time: 04:48:33
(UTC+00:00)

Cosmos 2369 Rocket - Pass Details

Date: 01 June 2020
Orbit: 830 x 851 km, 71.0° (Epoch: 05 July)

Event Time Altitude Azimuth Distance (km) Brightness Sun altitude
Exits shadow 21:48:44 32° 156° (SSE) 1,405 2.8 -18.6°
Maximum altitude 21:50:49 46° 107° (ESE) 1,118 2.5 -18.8°
Drops below altitude 10° 21:56:11 10° 35° (NE) 2,463 4.9 -19.4°
Sets 21:58:42 0° 30° (NNE) 3,399 5.7 -19.6°
